Location: Ocean City
(38.3360°N, 75.0850°W)
Time: 13:05:09
(UTC-05:00)

Explorer 11/Cluster Stage 4 - Pass Details

Date: 18 November 2019
Orbit: 467 x 1259 km, 28.8° (Epoch: 07 December)

Event Time Altitude Azimuth Distance (km) Brightness Sun altitude
Rises 23:41:17 0° 262° (W) 3,769 - -71.0°
Reaches altitude 10° 23:44:10 10° 253° (WSW) 2,926 - -71.0°
Maximum altitude 23:50:31 32° 194° (SSW) 1,932 - -71.0°
Drops below altitude 10° 23:57:28 10° 136° (SE) 3,217 - -70.9°
Sets 00:00:48 0° 127° (SE) 4,195 - -70.8°
